Location: B
(0.0000°N, 0.0000°E)
Time: 16:06:51
(UTC+01:00)

Cosmos 1025 Rocket - Visible Passes

Search period start: 01 March 2015 00:00
Search period end: 11 March 2015 00:00
Orbit: 596 x 619 km, 82.5° (Epoch: 27 February)

Date Brightness Start Highest point End Pass type
(mag) Time Alt. Az. Time Alt. Az. Time Alt. Az.
01 Mar 3.1 06:46:30 10° SSW 06:50:48 60° W 06:55:06 10° N visible
03 Mar 5.7 05:37:36 10° SE 05:40:47 21° E 05:44:07 10° NE visible
04 Mar 4.4 05:50:26 10° SSE 05:54:32 41° E 05:58:41 10° NNE visible
05 Mar 3.0 06:03:53 10° S 06:08:16 89° E 06:12:38 10° N visible
06 Mar 3.3 06:17:48 10° SSW 06:21:58 43° W 06:26:07 10° NNW visible
07 Mar 6.1 04:55:59 10° SE 04:58:11 14° E 05:00:38 10° ENE visible
07 Mar 4.2 06:32:19 10° SW 06:35:44 21° W 06:38:59 10° NW visible
08 Mar 5.0 05:08:15 10° SSE 05:11:59 28° E 05:15:46 10° NE visible
08 Mar 4.9 06:48:34 10° W 06:49:32 10° W 06:50:08 10° WNW visible
09 Mar 3.5 05:21:24 10° S 05:25:42 58° E 05:30:02 10° NNE visible
10 Mar 4.2 05:41:34 28° NNW 05:41:34 28° NNW 05:43:45 10° N visible
